FW1728 Weather Reports


time (UTC)temp
C
wind
direction
speed
KPH
gust
KPH
rain 1hr
cm
rain 24hr
cm
rain mn
cm
humidity
%
barometer
mb
20260906114550 23 56 1.6 3.2 0.00 0.00 0.00 96 1012.9
20260906113049 23 0 0.0 1.6 0.00 0.00 0.00 96 1012.8
20260906111545 23 0 0.0 3.2 0.00 0.00 0.00 96 1012.9
20260906110044 23 56 0.0 3.2 0.00 0.00 0.00 97 1012.8
20260906104549 23 0 0.0 4.8 0.00 0.00 0.00 97 1012.5
20260906103045 23 0 0.0 1.6 0.00 0.00 0.00 96 1012.3
20260906101544 23 0 0.0 1.6 0.00 0.00 0.00 96 1012.3
20260906100043 23 0 0.0 1.6 0.00 0.00 0.00 96 1012.3
20260906094548 23 0 0.0 1.6 0.00 0.00 0.00 96 1012.0
20260906093046 24 0 0.0 1.6 0.00 0.00 0.00 96 1011.9
20260906091543 24 0 0.0 0.0 0.00 0.00 0.00 97 1011.7
20260906090049 24 0 0.0 1.6 0.00 0.00 0.00 96 1011.6
20260906084545 24 0 0.0 3.2 0.00 0.03 0.00 96 1011.6
20260906083049 24 59 0.0 1.6 0.00 0.03 0.00 96 1011.4
20260906081551 24 0 0.0 0.0 0.00 0.03 0.00 96 1011.2
20260906080041 24 0 0.0 1.6 0.00 0.03 0.00 96 1011.2
20260906074547 24 0 0.0 1.6 0.00 0.03 0.00 96 1011.1
20260906073045 24 0 0.0 1.6 0.00 0.03 0.00 95 1011.3
20260906071556 25 0 0.0 1.6 0.00 0.03 0.00 96 1011.3
20260906070051 25 0 0.0 1.6 0.00 0.03 0.00 95 1011.1
20260906064546 25 0 0.0 1.6 0.00 0.03 0.00 95 1011.3
20260906063045 25 0 0.0 4.8 0.00 0.03 0.00 95 1011.3
20260906061547 25 108 0.0 3.2 0.00 0.03 0.00 95 1011.4
20260906060044 25 0 0.0 0.0 0.00 0.03 0.00 95 1011.5
20260906054550 25 0 0.0 1.6 0.00 0.03 0.00 95 1011.5
20260906053045 25 0 0.0 1.6 0.00 0.03 0.00 94 1011.6
20260906051550 25 0 0.0 1.6 0.00 0.03 0.00 94 1011.7
20260906050113 25 0 0.0 1.6 0.00 0.03 0.00 93 1011.8
20260906044550 26 108 0.0 3.2 0.00 0.03 0.03 93 1011.8
20260906043048 26 0 0.0 1.6 0.00 0.03 0.03 93 1011.7
20260906041552 26 105 0.0 4.8 0.00 0.03 0.03 93 1011.8
20260906040049 26 104 0.0 3.2 0.00 0.03 0.03 93 1012.0
20260906034545 26 107 1.6 4.8 0.00 0.03 0.03 93 1012.2
20260906033045 26 104 1.6 4.8 0.00 0.03 0.03 93 1012.6
20260906031543 26 0 0.0 1.6 0.00 0.03 0.03 93 1012.7
20260906030052 27 0 0.0 3.2 0.00 0.03 0.03 92 1012.6
20260906024547 27 107 1.6 4.8 0.00 0.03 0.03 93 1012.3
20260906023044 27 0 0.0 3.2 0.00 0.03 0.03 92 1012.0
20260906021555 27 12 0.0 1.6 0.00 0.03 0.03 92 1012.0
20260906020048 27 12 0.0 3.2 0.00 0.03 0.03 91 1011.8
20260906014543 27 12 1.6 3.2 0.00 0.03 0.03 91 1011.4
20260906013044 27 12 0.0 3.2 0.00 0.03 0.03 90 1011.3
20260906011541 27 0 0.0 3.2 0.00 0.03 0.03 89 1011.2
20260906010044 28 13 0.0 3.2 0.00 0.03 0.03 87 1011.0
20260906004543 28 14 0.0 3.2 0.00 0.03 0.03 86 1011.0
20260906003050 28 14 0.0 3.2 0.00 0.03 0.03 85 1011.0
20260906001546 28 14 1.6 3.2 0.00 0.03 0.03 84 1011.0
20260906000044 28 14 1.6 4.8 0.00 0.03 0.03 83 1010.9
20260905234554 29 5 1.6 4.8 0.00 0.03 0.03 83 1010.9
20260905233044 30 5 1.6 4.8 0.00 0.03 0.03 81 1010.9
20260905231546 30 55 1.6 4.8 0.00 0.03 0.03 77 1011.2
20260905230050 31 0 0.0 1.6 0.00 0.03 0.03 75 1011.2
20260905224545 31 0 0.0 3.2 0.00 0.25 0.03 73 1011.3
20260905223047 31 143 0.0 4.8 0.00 0.25 0.03 71 1011.2
20260905221544 31 0 0.0 1.6 0.00 0.25 0.03 72 1011.4
20260905220053 31 0 0.0 1.6 0.00 0.25 0.03 72 1011.5
20260905214601 31 294 0.0 4.8 0.00 0.36 0.03 75 1011.8
20260905213046 31 284 1.6 6.4 0.00 0.36 0.03 71 1011.8
20260905211750 31 34 3.2 6.4 0.00 0.36 0.03 72 1012.0
20260905210048 31 0 0.0 4.8 0.00 0.36 0.03 74 1012.2
20260905204545 31 186 0.0 4.8 0.00 0.36 0.03 75 1012.2
20260905203046 30 141 0.0 3.2 0.00 0.36 0.03 76 1012.5
20260905201545 30 123 0.0 3.2 0.00 0.36 0.03 77 1012.8
20260905200046 29 115 3.2 9.7 0.00 0.36 0.03 78 1012.8
20260905194555 29 0 0.0 11.3 0.00 0.36 0.03 81 1013.0
20260905193044 28 120 1.6 6.4 0.00 0.36 0.03 82 1013.0
20260905191544 28 0 1.6 4.8 0.00 0.36 0.03 83 1013.1
20260905190042 28 134 0.0 3.2 0.00 0.36 0.03 84 1013.2
20260905184604 27 0 0.0 4.8 0.00 0.36 0.03 85 1013.8
20260905183046 27 94 1.6 6.4 0.00 0.36 0.03 85 1014.1
20260905181552 27 0 1.6 6.4 0.00 0.36 0.03 86 1014.3
20260905180052 27 0 0.0 8.0 0.00 0.36 0.03 86 1014.3
20260905174550 27 119 1.6 11.3 0.00 0.36 0.03 86 1014.5
20260905173045 27 148 1.6 11.3 0.00 0.36 0.03 88 1014.7
20260905171544 27 121 3.2 12.9 0.00 0.36 0.03 87 1015.0
20260905170050 27 178 3.2 12.9 0.00 0.36 0.03 87 1015.1
20260905164545 27 156 1.6 12.9 0.00 0.36 0.03 88 1015.0
20260905163102 27 115 4.8 11.3 0.00 0.36 0.03 87 1014.9
20260905161544 27 128 6.4 12.9 0.00 0.36 0.03 86 1015.2
20260905160055 27 130 3.2 11.3 0.00 0.36 0.03 88 1015.1
20260905154549 27 98 0.0 6.4 0.00 0.36 0.03 87 1015.0
20260905153042 27 0 1.6 6.4 0.00 0.36 0.03 87 1014.8
20260905151546 27 0 0.0 4.8 0.00 0.36 0.03 87 1014.8
20260905150045 27 113 1.6 4.8 0.00 0.36 0.03 89 1014.8
20260905144552 26 122 1.6 6.4 0.00 0.36 0.03 92 1014.8
20260905143054 26 304 0.0 1.6 0.00 0.36 0.03 95 1014.6
20260905141603 25 0 0.0 1.6 0.00 0.36 0.03 96 1014.7
20260905140055 25 0 0.0 1.6 0.00 0.36 0.03 96 1014.6
20260905134603 25 0 0.0 3.2 0.00 0.36 0.03 97 1014.6
20260905133054 24 300 0.0 1.6 0.00 0.36 0.03 97 1014.5
20260905131554 24 0 1.6 4.8 0.00 0.36 0.03 97 1014.2
20260905130055 24 360 0.0 3.2 0.00 0.36 0.03 98 1014.3
20260905124550 23 5 1.6 4.8 0.00 0.36 0.03 97 1014.4
20260905123046 23 0 0.0 1.6 0.00 0.36 0.03 97 1014.3
20260905121544 23 0 0.0 3.2 0.00 0.36 0.03 97 1014.2
20260905120042 23 0 0.0 1.6 0.00 0.36 0.03 97 1014.1